FW8143 Weather Reports


time (UTC)temp
F
wind
direction
speed
knots
gust
knots
rain 1hr
in
rain 24hr
in
rain mn
in
humidity
%
barometer
mb
20260502170159 53 225 3.5 8.7 0.00 0.13 0.01 39 1030.2
20260502164135 51 83 3.5 8.7 0.00 0.13 0.01 42 1030.3
20260502163629 51 162 4.3 9.6 0.00 0.13 0.01 47 1030.3
20260502163123 50 58 3.5 9.6 0.00 0.13 0.01 43 1030.3
20260502162617 49 144 3.5 9.6 0.00 0.13 0.01 48 1030.3
20260502162111 48 130 3.5 9.6 0.00 0.13 0.01 47 1030.2
20260502161605 47 101 2.6 8.7 0.00 0.13 0.01 50 1030.2
20260502161058 46 57 2.6 8.7 0.00 0.13 0.01 52 1030.2
20260502160815 45 152 2.6 8.7 0.00 0.13 0.01 56 1030.2
20260502160318 44 350 2.6 6.1 0.00 0.13 0.01 63 1030.1
20260502151959 39 338 4.3 8.7 0.00 0.13 0.01 95 1030.2
20260502151726 38 25 3.5 7.0 0.00 0.13 0.01 95 1030.2
20260502150947 38 18 3.5 7.0 0.00 0.13 0.01 95 1030.2
20260502150441 37 351 4.3 8.7 0.00 0.13 0.01 95 1030.2
20260502130723 31 46 3.5 7.0 0.00 0.13 0.01 93 1029.7
20260502130217 31 50 3.5 7.0 0.00 0.13 0.01 92 1029.7
20260502123649 31 52 1.7 4.3 0.00 0.13 0.01 93 1029.4
20260502123149 31 29 1.7 5.2 0.00 0.13 0.01 93 1029.3
20260502122649 31 95 2.6 7.0 0.00 0.13 0.01 93 1029.2
20260502122411 31 82 4.3 7.8 0.00 0.13 0.01 93 1029.2
20260502121649 32 106 5.2 7.8 0.00 0.13 0.01 93 1029.2
20260502121149 32 86 5.2 7.8 0.00 0.13 0.01 93 1029.2
20260502120911 32 114 5.2 7.8 0.00 0.13 0.01 93 1029.2
20260502120149 32 75 4.3 7.0 0.00 0.13 0.01 93 1029.2
20260502115649 32 88 4.3 7.0 0.00 0.13 0.01 93 1029.2
20260502115149 33 83 3.5 6.1 0.00 0.13 0.01 93 1029.3
20260502114908 33 85 1.7 5.2 0.00 0.13 0.01 93 1029.2
20260502114149 33 80 0.9 4.3 0.00 0.14 0.01 93 1029.4
20260502113650 33 66 1.7 5.2 0.00 0.14 0.01 93 1029.6
20260502113147 34 61 2.6 6.1 0.00 0.14 0.01 93 1029.6
20260502112647 34 53 3.5 6.1 0.00 0.14 0.01 93 1029.6
20260502112143 34 62 4.3 7.0 0.00 0.15 0.01 93 1029.6
20260502111641 34 79 4.3 7.0 0.00 0.15 0.01 93 1029.4
20260502111402 34 88 3.5 7.0 0.00 0.15 0.01 94 1029.6
20260502110638 35 96 3.5 6.1 0.00 0.15 0.01 94 1029.6
20260502110131 35 72 2.6 5.2 0.00 0.15 0.01 94 1029.6
20260502105625 35 61 2.6 4.3 0.00 0.15 0.01 94 1029.6
20260502105118 35 24 2.6 4.3 0.00 0.16 0.01 94 1029.6
20260502104613 35 5 3.5 6.1 0.00 0.16 0.01 94 1029.6
20260502104107 35 12 2.6 6.1 0.00 0.16 0.01 94 1029.6
20260502103600 35 65 2.6 6.1 0.00 0.16 0.01 94 1029.3
20260502103054 35 5 1.7 6.1 0.00 0.16 0.01 94 1029.3
20260502102811 35 50 0.9 3.5 0.00 0.16 0.01 94 1029.3
20260502102043 35 45 0.9 2.6 0.00 0.17 0.01 94 1029.3
20260502101757 35 50 0.9 3.5 0.00 0.17 0.01 94 1029.2
20260502101250 35 35 1.7 3.5 0.00 0.17 0.01 94 1029.3
20260502100524 35 11 0.9 3.5 0.00 0.17 0.01 94 1029.2
20260502091514 36 17 0.9 2.6 0.00 0.17 0.01 94 1028.8
20260502091015 36 17 1.7 2.6 0.00 0.17 0.01 94 1028.8
20260502090512 36 19 2.6 5.2 0.00 0.17 0.01 94 1028.7
20260502071441 36 113 1.7 3.5 0.00 0.24 0.00 94 1029.4
20260502070934 36 94 1.7 3.5 0.00 0.25 0.00 94 1029.6
20260502070428 36 76 0.9 3.5 0.00 0.25 0.00 94 1029.4
20260502065922 36 96 0.9 3.5 0.00 0.25 0.00 94 1029.4
20260502065416 36 138 0.9 3.5 0.00 0.25 0.00 94 1029.4
20260502064910 37 80 0.0 2.6 0.00 0.26 0.00 94 1029.3
20260502064404 37 119 0.0 0.9 0.00 0.26 0.00 94 1029.3
20260502064115 37 102 0.0 3.5 0.00 0.26 0.00 94 1029.3
20260502063351 37 45 0.0 3.5 0.00 0.26 0.00 94 1029.3
20260502062847 37 175 0.0 0.0 0.00 0.26 0.00 94 1029.2
20260502062340 37 175 0.0 0.0 0.00 0.26 0.00 94 1029.3
20260502062100 37 175 0.0 1.7 0.00 0.26 0.00 94 1029.2
20260502061602 36 175 0.0 1.7 0.00 0.26 0.00 94 1029.1
20260502060832 36 175 0.0 1.7 0.00 0.26 0.00 94 1029.1
20260502060333 36 175 0.0 1.7 0.00 0.26 0.00 94 1029.1
20260502055831 36 175 0.0 1.7 0.00 0.26 0.26 94 1028.9
20260502055331 36 175 0.0 0.0 0.00 0.26 0.26 94 1028.9
20260502054829 36 175 0.0 0.0 0.00 0.26 0.26 94 1029.1
20260502054326 36 175 0.0 0.0 0.00 0.26 0.26 94 1029.1
20260502053826 36 175 0.0 1.7 0.00 0.26 0.26 93 1028.9
20260502053327 36 175 0.0 3.5 0.00 0.26 0.26 93 1028.8
20260502052825 36 175 0.0 3.5 0.00 0.26 0.26 93 1028.7
20260502052543 36 144 0.9 3.5 0.00 0.26 0.26 93 1028.7
20260502051823 36 144 0.0 3.5 0.00 0.26 0.26 93 1028.7
20260502051322 36 223 0.0 0.0 0.00 0.26 0.26 93 1028.7
20260502050823 36 340 0.0 1.7 0.00 0.26 0.26 92 1028.6
20260502050323 36 355 0.0 1.7 0.00 0.26 0.26 93 1028.6
20260502045822 36 0 0.0 0.9 0.00 0.26 0.26 93 1028.4
20260502045321 36 355 0.0 0.9 0.00 0.26 0.26 93 1028.4
20260502044821 37 355 0.0 1.7 0.00 0.26 0.26 93 1028.3
20260502044321 37 355 0.0 1.7 0.00 0.26 0.26 93 1028.3
20260502043821 37 69 0.0 1.7 0.00 0.26 0.26 93 1028.2
20260502043320 37 69 1.7 4.3 0.00 0.26 0.26 93 1028.1
20260502042820 37 69 2.6 4.3 0.00 0.26 0.26 93 1028.1
20260502042542 37 78 1.7 3.5 0.00 0.26 0.26 93 1028.1
20260502041821 37 93 1.7 3.5 0.00 0.26 0.26 93 1028.1
20260502041321 37 88 0.9 2.6 0.00 0.26 0.26 93 1028.2
20260502040820 37 69 0.9 5.2 0.00 0.27 0.26 93 1028.3
20260502040547 37 26 2.6 5.2 0.00 0.27 0.26 93 1028.3
20260502035822 37 17 3.5 7.0 0.00 0.27 0.26 93 1028.3
20260502035540 37 350 3.5 7.0 0.00 0.27 0.26 93 1028.3
20260502034821 37 337 2.6 7.0 0.00 0.27 0.26 93 1028.4
20260502034321 37 323 2.6 6.1 0.00 0.28 0.26 93 1028.4
20260502033820 37 76 3.5 7.0 0.00 0.29 0.26 92 1028.3
20260502033320 37 94 4.3 7.0 0.00 0.30 0.26 92 1028.2
20260502032818 37 102 3.5 7.0 0.00 0.30 0.26 92 1028.1
20260502032312 37 79 1.7 5.2 0.00 0.31 0.26 92 1028.1
20260502031806 37 85 0.9 3.5 0.00 0.31 0.26 92 1028.1
20260502031300 37 101 0.9 2.6 0.00 0.31 0.26 92 1027.9
20260502030754 37 135 0.9 2.6 0.00 0.31 0.26 92 1027.7
20260502030508 37 100 1.7 4.3 0.00 0.31 0.26 92 1027.6
20260502025742 37 92 2.6 5.2 0.00 0.31 0.26 92 1027.4
20260502025236 38 98 0.9 5.2 0.00 0.32 0.26 91 1027.4
20260502024729 38 89 0.9 5.2 0.00 0.32 0.26 91 1027.3
20260502024223 38 88 0.9 5.2 0.00 0.32 0.26 91 1027.2
20260502023940 38 95 0.0 3.5 0.00 0.32 0.26 91 1027.1
20260502023434 38 56 0.0 1.7 0.00 0.32 0.26 91 1026.9
20260502022929 38 56 0.9 2.6 0.00 0.32 0.26 91 1027.1
20260502022426 38 56 0.9 2.6 0.00 0.32 0.26 91 1026.8
20260502021655 38 59 0.0 1.7 0.00 0.32 0.26 91 1026.8
20260502021148 38 85 0.9 2.6 0.00 0.32 0.26 91 1026.8
20260502020641 39 85 1.7 5.2 0.00 0.32 0.26 91 1026.5
20260502020136 39 88 1.7 5.2 0.00 0.32 0.26 91 1026.5
20260502015630 39 74 0.9 2.6 0.00 0.32 0.26 91 1026.5
20260502015123 39 30 0.9 3.5 0.00 0.32 0.26 91 1026.7
20260502014618 39 28 1.7 4.3 0.00 0.32 0.26 91 1026.5
20260502014112 39 28 2.6 4.3 0.00 0.32 0.26 91 1026.3
20260502013606 39 71 2.6 5.2 0.00 0.32 0.26 91 1026.3
20260502013100 39 92 3.5 7.0 0.00 0.32 0.26 90 1026.0
20260502012554 39 88 2.6 7.0 0.01 0.32 0.26 90 1026.2
20260502012047 39 90 0.9 3.5 0.01 0.32 0.26 90 1026.3
20260502011542 39 94 0.9 3.5 0.01 0.32 0.26 91 1026.3
20260502011036 39 143 1.7 6.1 0.01 0.32 0.26 91 1026.0
20260502010529 40 136 1.7 6.1 0.01 0.32 0.26 91 1025.9
20260502010024 40 120 0.9 5.2 0.01 0.32 0.26 91 1025.9
20260502005518 40 81 1.7 6.1 0.02 0.32 0.26 91 1025.8
20260502005011 40 102 2.6 7.0 0.03 0.32 0.26 92 1025.5
20260502004724 40 132 3.5 7.0 0.05 0.32 0.26 92 1025.3
20260502004000 40 134 3.5 7.0 0.06 0.32 0.26 92 1025.3
20260502003453 40 146 2.6 7.0 0.06 0.32 0.26 92 1025.3
20260502002948 40 161 2.6 7.0 0.07 0.32 0.26 92 1025.0
20260502002442 40 134 2.6 7.8 0.07 0.31 0.25 92 1025.0
20260502002156 40 173 3.5 7.8 0.08 0.31 0.25 91 1025.0
20260502001430 40 135 3.5 9.6 0.08 0.31 0.25 91 1025.0
20260502000924 40 136 4.3 9.6 0.09 0.31 0.25 91 1025.0
20260502000418 40 121 6.1 11.3 0.09 0.31 0.25 90 1025.0
20260501235911 40 92 5.2 11.3 0.08 0.30 0.24 90 1024.9
20260501235405 40 83 1.7 9.6 0.08 0.29 0.23 89 1025.2
20260501234900 40 31 0.9 4.3 0.07 0.28 0.22 89 1025.5
20260501234353 40 252 0.9 4.3 0.06 0.27 0.21 89 1025.7
20260501234334 40 242 0.9 3.5 0.05 0.26 0.20 89 1025.8
20260501233604 40 294 0.9 3.5 0.05 0.26 0.20 89 1025.9
20260501232836 40 267 0.0 3.5 0.04 0.25 0.19 89 1025.8
20260501232330 40 300 0.0 1.7 0.03 0.24 0.18 87 1025.7
20260501231824 40 98 0.0 0.0 0.02 0.23 0.17 87 1025.5
20260501231318 40 98 0.0 3.5 0.03 0.23 0.17 87 1025.4
20260501230813 40 98 0.0 3.5 0.02 0.22 0.16 86 1025.2
20260501230307 41 80 0.0 0.9 0.02 0.22 0.16 85 1025.0
20260501225759 41 57 0.0 0.9 0.02 0.22 0.16 84 1025.0
20260501225254 41 57 1.7 6.1 0.01 0.21 0.15 83 1024.9
20260501224747 42 57 3.5 9.6 0.01 0.21 0.15 80 1024.9
20260501224505 43 61 5.2 10.4 0.01 0.21 0.15 77 1024.9
20260501223959 44 67 7.0 10.4 0.01 0.21 0.15 74 1024.8
20260501223229 45 72 7.0 12.2 0.01 0.21 0.15 69 1024.8
20260501222723 47 52 7.0 13.0 0.01 0.21 0.15 67 1024.8
20260501222439 48 40 7.0 15.6 0.01 0.21 0.15 66 1024.7
20260501221714 50 39 7.8 15.6 0.01 0.21 0.15 60 1024.7
20260501221214 51 26 5.2 15.6 0.00 0.20 0.14 58 1024.7
20260501220714 52 49 4.3 9.6 0.00 0.20 0.14 54 1024.4
20260501220214 53 144 6.1 11.3 0.00 0.20 0.14 56 1024.3
20260501215933 52 184 7.0 13.9 0.00 0.20 0.14 58 1024.3
20260501215214 51 148 7.0 13.9 0.00 0.20 0.14 59 1024.2
20260501214716 51 166 6.1 13.0 0.00 0.20 0.14 57 1024.0
20260501214214 51 149 6.1 14.8 0.00 0.20 0.14 59 1024.2
20260501213714 50 179 7.0 14.8 0.00 0.20 0.14 62 1024.2
20260501213212 50 176 7.0 14.8 0.00 0.20 0.14 59 1024.0
20260501212936 51 167 6.1 13.0 0.00 0.20 0.14 58 1024.0
20260501212212 51 194 6.1 14.8 0.00 0.20 0.14 59 1024.2
20260501211712 51 165 7.8 14.8 0.00 0.20 0.14 59 1024.0
20260501211210 52 98 7.8 14.8 0.00 0.20 0.14 55 1024.0
20260501210707 52 132 7.0 14.8 0.00 0.20 0.14 59 1023.9
20260501210208 51 143 7.8 14.8 0.00 0.20 0.14 57 1023.9
20260501205709 52 145 8.7 19.1 0.00 0.20 0.14 57 1024.0
20260501205208 52 127 7.8 19.1 0.00 0.20 0.14 56 1023.9
20260501204703 51 185 7.0 16.5 0.00 0.20 0.14 59 1024.0
20260501204155 51 130 8.7 18.2 0.00 0.20 0.14 60 1024.0
20260501203650 51 141 9.6 18.2 0.00 0.20 0.14 59 1024.0
20260501203144 51 129 8.7 17.4 0.00 0.20 0.14 60 1024.0
20260501202638 51 126 7.8 13.9 0.00 0.20 0.14 62 1024.0
20260501202355 51 139 9.6 17.4 0.00 0.20 0.14 60 1024.0
20260501201848 51 154 8.7 17.4 0.00 0.20 0.14 62 1024.0
20260501201120 50 176 7.8 14.8 0.00 0.20 0.14 61 1024.2
20260501200620 50 180 7.0 14.8 0.00 0.20 0.14 63 1024.0
20260501200120 50 187 7.0 13.9 0.00 0.20 0.14 66 1024.0
20260501195846 49 178 7.0 13.9 0.00 0.20 0.14 65 1024.2
20260501195120 49 195 7.0 16.5 0.00 0.20 0.14 66 1024.2
20260501195109 49 173 6.1 16.5 0.00 0.20 0.14 66 1024.2
20260501194120 49 182 6.1 10.4 0.00 0.20 0.14 67 1024.2
20260501193619 49 190 5.2 12.2 0.00 0.20 0.14 68 1024.2
20260501193120 49 190 3.5 12.2 0.00 0.20 0.14 68 1024.2
20260501192620 50 237 1.7 4.3 0.00 0.20 0.14 69 1024.3
20260501192122 50 107 1.7 4.3 0.00 0.20 0.14 69 1024.3
20260501191620 50 132 1.7 7.0 0.00 0.20 0.14 72 1024.4
20260501191120 49 136 2.6 7.0 0.00 0.20 0.14 73 1024.4
20260501190622 49 86 3.5 9.6 0.00 0.20 0.14 80 1024.5
20260501190120 48 150 2.6 9.6 0.00 0.20 0.14 81 1024.5
20260501190104 47 257 1.7 7.0 0.00 0.20 0.14 87 1024.7
20260501185120 47 184 1.7 5.2 0.00 0.20 0.14 89 1024.7
20260501184844 46 109 1.7 5.2 0.00 0.20 0.14 91 1024.8
20260501184120 46 174 0.9 3.5 0.00 0.20 0.14 92 1024.8
20260501183620 45 192 0.9 3.5 0.00 0.20 0.14 93 1024.8
20260501183341 45 71 0.9 3.5 0.00 0.20 0.14 94 1024.9
20260501182619 44 142 1.7 6.1 0.00 0.20 0.14 94 1025.0
20260501182338 44 91 1.7 6.1 0.00 0.20 0.14 95 1025.0
20260501181620 44 190 2.6 7.8 0.00 0.20 0.14 96 1025.0
20260501181337 43 148 2.6 7.8 0.00 0.20 0.14 96 1025.2
20260501180620 42 147 1.7 7.8 0.00 0.20 0.14 96 1025.2
20260501180120 42 215 0.9 4.3 0.00 0.20 0.14 96 1025.3
20260501175620 41 261 0.9 3.5 0.00 0.20 0.14 96 1025.4